loading
|
Showing default

OPS 9344 (IDSCS 22), 3287

Orbit data source: Space-Track

OPS 9344 (IDSCS 22), 3287 is a payload satellite owned by SAMSO (US) that was launched on Thu, 13 Jun 1968 UTC via a TITAN IIIC launch vehicle from the Air Force Eastern Test Range (AFETR). Payloads include a variety of satellites, spacecraft, and rockets equipped with specific instruments for various scientific and technological missions. These include communications satellites like Starlink; space stations such as the ISS; scientific satellites like the Hubble; Earth observation satellites from companies like Planet Labs, Umbra, and HawkEye 360; GPS; miniature CubeSats for education and research; and military/defense satellites.

Loading next visibility...
Loading greatness...
OPS 9344 (IDSCS 22) details
Identifier
3287, 1968-050D
Orbit
Active
Last TLE update15 hours ago
Origin
Flag of USSAMSO (US)
ManufacturerPhilco-Ford
MissionNon-operational Defense Communications
Bus & MotorIDCSP, Unknown motor
Mass45 kg wet, 45 kg dry
Launch date (UTC)
1968-06-13 (56 years ago)
Launch vehicle
TITAN IIIC
Launch site
Air Force Eastern Test Range (AFETR)
Object type
Payload
Rocket body
Debris
Shape & HBRPoly, 0.9 m
Radar Cross Section0.926 m², Medium (>0.1 m² and < 1m²)

Expand to show TLE details & history

TLE from 15 hours ago
0 OPS 9344 (IDSCS 22)
1 03287U 68050D   24284.37879684 -.00000104  00000-0  00000-0 0  9997
2 03287   5.9151  57.5555 0026717 128.7654 205.7542  1.07640781220644
Epoch: 2024-10-10T09:05Z
Definitive object data (Epoch: 2024-10-10T09:05:28.046Z)
Latitude-2.55529°
Longitude-123.80181°
Altitude33,936.696 km
Speed3.141 km/s
True Right ascension02h 08m 07s
True Declination-2° 33' 09"
Sunlit
Object was in daylight at TLE epoch
Predictive object data (real-time)
Latitude-3.64019°
Longitude119.69203°
Altitude33,837.851 km
Speed3.148 km/s
Apparent Right ascension18h 21m 03s
Apparent Declination-10° 38' 31"
Sunlit
Object is in daylight
Predictive observer data (real-time)
Local Sidereal Time18:29:28
Azimuth182.677° SSW
Elevation39.404°
Doppler factor1
Orbital elements
Apogee33,948.123 km
Perigee33,733.217 km
Semi-major axis40,218.807 km
Eccentricity0.0026717
Inclination5.9151°
RAAN57.5555°
Arg. of periapsis128.7654°
True anomaly205.62157°
Mean anomaly205.7542°
Eccentric anomaly205.68785°
Mean motion0.26909 °/min
BSTARUnknown
Period1337.84 mins
No data available

OPS 9344 (IDSCS 22) Visibility forecast

Observer location: 39.9160978°, -105.1181434

OPS 9344 (IDSCS 22) is not visible in the next 10 days
Span
Click to sort rows by Start time (UTC) header in descending order
Start Az.
Max El. time (UTC)
Max El. Az.
Max El.
End time (UTC)
End Az.